Time,TemperatureF,DewpointF,PressureIn,WindDirection,WindDirectionDegrees,WindSpeedMPH,WindSpeedGustMPH,Humidity,HourlyPrecipIn,Conditions,Clouds,dailyrainin,SoftwareType,DateUTC
2013-03-23 00:10:00,30.6,20.0,29.93,WNW,283,6.0,-999.0,66,-99.99,,,0.00,weatherlink.com 1.10,2013-03-23 04:10:00,
2013-03-23 00:25:00,30.7,21.0,29.93,West,269,5.0,-999.0,66,-99.99,,,0.00,weatherlink.com 1.10,2013-03-23 04:25:00,
2013-03-23 00:40:00,30.7,21.0,29.93,West,274,7.0,-999.0,66,-99.99,,,0.00,weatherlink.com 1.10,2013-03-23 04:40:00,
2013-03-23 00:56:00,30.8,21.0,29.93,WNW,290,6.0,-999.0,66,-99.99,,,0.00,weatherlink.com 1.10,2013-03-23 04:56:00,
2013-03-23 01:12:00,30.8,20.0,29.93,WNW,292,4.0,-999.0,65,-99.99,,,0.00,weatherlink.com 1.10,2013-03-23 05:12:00,
2013-03-23 01:26:00,30.8,21.0,29.93,West,279,5.0,-999.0,66,-99.99,,,0.00,weatherlink.com 1.10,2013-03-23 05:26:00,
2013-03-23 01:42:00,30.7,21.0,29.94,WNW,282,5.0,-999.0,66,-99.99,,,0.00,weatherlink.com 1.10,2013-03-23 05:42:00,
2013-03-23 01:57:00,30.8,21.0,29.94,WSW,257,7.0,-999.0,66,-99.99,,,0.00,weatherlink.com 1.10,2013-03-23 05:57:00,
2013-03-23 02:12:00,30.8,21.0,29.93,WNW,291,7.0,-999.0,66,-99.99,,,0.00,weatherlink.com 1.10,2013-03-23 06:12:00,
2013-03-23 02:27:00,30.9,21.0,29.93,NW,321,6.0,-999.0,66,-99.99,,,0.00,weatherlink.com 1.10,2013-03-23 06:27:00,
2013-03-23 02:43:00,30.9,21.0,29.93,WNW,288,8.0,-999.0,66,-99.99,,,0.00,weatherlink.com 1.10,2013-03-23 06:43:00,
2013-03-23 02:57:00,31.0,21.0,29.93,West,260,5.0,-999.0,66,-99.99,,,0.00,weatherlink.com 1.10,2013-03-23 06:57:00,
2013-03-23 03:13:00,31.0,21.0,29.92,West,276,9.0,-999.0,66,-99.99,,,0.00,weatherlink.com 1.10,2013-03-23 07:13:00,
2013-03-23 03:28:00,31.0,21.0,29.92,WNW,291,10.0,-999.0,66,-99.99,,,0.00,weatherlink.com 1.10,2013-03-23 07:28:00,
2013-03-23 03:48:00,30.7,21.0,29.91,WNW,284,3.0,-999.0,66,-99.99,,,0.00,weatherlink.com 1.10,2013-03-23 07:48:00,
2013-03-23 04:01:00,30.7,20.0,29.91,WSW,249,4.0,-999.0,65,-99.99,,,0.00,weatherlink.com 1.10,2013-03-23 08:01:00,
2013-03-23 04:15:00,30.3,20.0,29.91,West,270,10.0,-999.0,65,-99.99,,,0.00,weatherlink.com 1.10,2013-03-23 08:15:00,
2013-03-23 04:30:00,29.9,20.0,29.91,NW,304,6.0,-999.0,66,-99.99,,,0.00,weatherlink.com 1.10,2013-03-23 08:30:00,
2013-03-23 04:45:00,29.6,19.0,29.91,WNW,290,5.0,-999.0,66,-99.99,,,0.00,weatherlink.com 1.10,2013-03-23 08:45:00,
2013-03-23 05:00:00,29.4,19.0,29.91,West,275,3.0,-999.0,66,-99.99,,,0.00,weatherlink.com 1.10,2013-03-23 09:00:00,
2013-03-23 05:15:00,29.3,19.0,29.91,WNW,294,6.0,-999.0,66,-99.99,,,0.00,weatherlink.com 1.10,2013-03-23 09:15:00,
2013-03-23 05:30:00,29.2,19.0,29.91,WNW,284,6.0,-999.0,66,-99.99,,,0.00,weatherlink.com 1.10,2013-03-23 09:30:00,
2013-03-23 05:46:00,29.1,19.0,29.92,WSW,256,7.0,-999.0,66,-99.99,,,0.00,weatherlink.com 1.10,2013-03-23 09:46:00,
2013-03-23 06:01:00,29.2,19.0,29.92,West,277,11.0,-999.0,66,-99.99,,,0.00,weatherlink.com 1.10,2013-03-23 10:01:00,
2013-03-23 06:16:00,29.3,20.0,29.93,WNW,282,7.0,-999.0,67,-99.99,,,0.00,weatherlink.com 1.10,2013-03-23 10:16:00,
2013-03-23 06:31:00,29.7,20.0,29.93,WNW,282,6.0,-999.0,66,-99.99,,,0.00,weatherlink.com 1.10,2013-03-23 10:31:00,
2013-03-23 06:47:00,29.8,20.0,29.93,West,276,11.0,-999.0,66,-99.99,,,0.00,weatherlink.com 1.10,2013-03-23 10:47:00,
2013-03-23 07:02:00,29.9,20.0,29.94,West,264,6.0,-999.0,66,-99.99,,,0.00,weatherlink.com 1.10,2013-03-23 11:02:00,
2013-03-23 07:17:00,29.7,20.0,29.94,West,280,4.0,-999.0,66,-99.99,,,0.00,weatherlink.com 1.10,2013-03-23 11:17:00,
2013-03-23 07:32:00,29.8,20.0,29.93,WNW,294,7.0,-999.0,66,-99.99,,,0.00,weatherlink.com 1.10,2013-03-23 11:32:00,
2013-03-23 07:48:00,29.9,20.0,29.94,WNW,284,6.0,-999.0,66,-99.99,,,0.00,weatherlink.com 1.10,2013-03-23 11:48:00,
2013-03-23 08:03:00,30.2,20.0,29.94,West,281,6.0,-999.0,66,-99.99,,,0.00,weatherlink.com 1.10,2013-03-23 12:03:00,
2013-03-23 08:18:00,30.7,20.0,29.94,West,281,5.0,-999.0,65,-99.99,,,0.00,weatherlink.com 1.10,2013-03-23 12:18:00,
2013-03-23 08:33:00,31.2,21.0,29.93,NW,310,6.0,-999.0,65,-99.99,,,0.00,weatherlink.com 1.10,2013-03-23 12:33:00,
2013-03-23 08:50:00,31.9,20.0,29.93,WNW,293,7.0,-999.0,63,-99.99,,,0.00,weatherlink.com 1.10,2013-03-23 12:50:00,
2013-03-23 09:08:00,32.7,21.0,29.93,WNW,293,8.0,-999.0,62,-99.99,,,0.00,weatherlink.com 1.10,2013-03-23 13:08:00,
2013-03-23 09:20:00,33.0,21.0,29.93,WSW,248,8.0,-999.0,61,-99.99,,,0.00,weatherlink.com 1.10,2013-03-23 13:20:00,
2013-03-23 09:35:00,33.4,21.0,29.93,West,279,7.0,-999.0,60,-99.99,,,0.00,weatherlink.com 1.10,2013-03-23 13:35:00,
2013-03-23 09:50:00,33.6,21.0,29.93,West,264,5.0,-999.0,60,-99.99,,,0.00,weatherlink.com 1.10,2013-03-23 13:50:00,
2013-03-23 10:05:00,34.8,22.0,29.93,WNW,293,6.0,-999.0,59,-99.99,,,0.00,weatherlink.com 1.10,2013-03-23 14:05:00,
2013-03-23 10:20:00,35.0,21.0,29.93,WNW,291,5.0,-999.0,58,-99.99,,,0.00,weatherlink.com 1.10,2013-03-23 14:20:00,
2013-03-23 10:36:00,35.5,21.0,29.93,WNW,283,15.0,-999.0,57,-99.99,,,0.00,weatherlink.com 1.10,2013-03-23 14:36:00,
2013-03-23 10:51:00,36.0,22.0,29.93,SW,219,7.0,-999.0,56,-99.99,,,0.00,weatherlink.com 1.10,2013-03-23 14:51:00,
2013-03-23 11:06:00,36.7,21.0,29.93,WNW,296,5.0,-999.0,54,-99.99,,,0.00,weatherlink.com 1.10,2013-03-23 15:06:00,
2013-03-23 11:21:00,36.8,21.0,29.93,West,277,6.0,-999.0,54,-99.99,,,0.00,weatherlink.com 1.10,2013-03-23 15:21:00,
2013-03-23 11:37:00,37.9,20.0,29.93,WNW,296,16.0,-999.0,49,-99.99,,,0.00,weatherlink.com 1.10,2013-03-23 15:37:00,
2013-03-23 11:52:00,37.5,20.0,29.93,WNW,290,7.0,-999.0,50,-99.99,,,0.00,weatherlink.com 1.10,2013-03-23 15:52:00,
2013-03-23 12:07:00,38.2,21.0,29.92,WNW,284,13.0,-999.0,50,-99.99,,,0.00,weatherlink.com 1.10,2013-03-23 16:07:00,
2013-03-23 12:23:00,38.4,21.0,29.92,SW,229,5.0,-999.0,49,-99.99,,,0.00,weatherlink.com 1.10,2013-03-23 16:23:00,
2013-03-23 12:38:00,38.0,21.0,29.92,West,273,7.0,-999.0,51,-99.99,,,0.00,weatherlink.com 1.10,2013-03-23 16:38:00,
2013-03-23 12:53:00,38.4,21.0,29.92,West,261,11.0,-999.0,50,-99.99,,,0.00,weatherlink.com 1.10,2013-03-23 16:53:00,
2013-03-23 13:08:00,38.1,21.0,29.92,WNW,283,9.0,-999.0,50,-99.99,,,0.00,weatherlink.com 1.10,2013-03-23 17:08:00,
2013-03-23 13:25:00,38.6,21.0,29.91,WSW,258,13.0,-999.0,50,-99.99,,,0.00,weatherlink.com 1.10,2013-03-23 17:25:00,
2013-03-23 13:40:00,40.0,21.0,29.91,WSW,248,7.0,-999.0,47,-99.99,,,0.00,weatherlink.com 1.10,2013-03-23 17:40:00,
2013-03-23 13:55:00,39.4,21.0,29.90,West,265,16.0,-999.0,48,-99.99,,,0.00,weatherlink.com 1.10,2013-03-23 17:55:00,
2013-03-23 14:10:00,39.7,21.0,29.90,West,261,7.0,-999.0,48,-99.99,,,0.00,weatherlink.com 1.10,2013-03-23 18:10:00,
2013-03-23 14:25:00,39.1,21.0,29.90,West,275,7.0,-999.0,48,-99.99,,,0.00,weatherlink.com 1.10,2013-03-23 18:25:00,
2013-03-23 14:40:00,39.4,21.0,29.89,West,273,9.0,-999.0,47,-99.99,,,0.00,weatherlink.com 1.10,2013-03-23 18:40:00,
2013-03-23 14:55:00,40.1,20.0,29.88,West,271,9.0,-999.0,45,-99.99,,,0.00,weatherlink.com 1.10,2013-03-23 18:55:00,
2013-03-23 15:10:00,41.1,21.0,29.88,NNW,336,9.0,-999.0,44,-99.99,,,0.00,weatherlink.com 1.10,2013-03-23 19:10:00,
2013-03-23 15:26:00,41.0,21.0,29.88,West,265,6.0,-999.0,45,-99.99,,,0.00,weatherlink.com 1.10,2013-03-23 19:26:00,
2013-03-23 15:41:00,42.0,21.0,29.88,North,355,5.0,-999.0,43,-99.99,,,0.00,weatherlink.com 1.10,2013-03-23 19:41:00,
2013-03-23 15:57:00,42.0,20.0,29.89,WNW,290,8.0,-999.0,42,-99.99,,,0.00,weatherlink.com 1.10,2013-03-23 19:57:00,
2013-03-23 16:12:00,40.7,20.0,29.89,WNW,301,9.0,-999.0,44,-99.99,,,0.00,weatherlink.com 1.10,2013-03-23 20:12:00,
2013-03-23 16:27:00,40.6,20.0,29.88,WNW,293,9.0,-999.0,44,-99.99,,,0.00,weatherlink.com 1.10,2013-03-23 20:27:00,
2013-03-23 16:42:00,42.2,19.0,29.88,NW,322,2.0,-999.0,40,-99.99,,,0.00,weatherlink.com 1.10,2013-03-23 20:42:00,
2013-03-23 16:57:00,41.9,20.0,29.88,WSW,252,12.0,-999.0,41,-99.99,,,0.00,weatherlink.com 1.10,2013-03-23 20:57:00,
2013-03-23 17:13:00,41.0,19.0,29.89,West,273,4.0,-999.0,42,-99.99,,,0.00,weatherlink.com 1.10,2013-03-23 21:13:00,
2013-03-23 17:28:00,40.6,20.0,29.89,West,266,6.0,-999.0,43,-99.99,,,0.00,weatherlink.com 1.10,2013-03-23 21:28:00,
2013-03-23 17:44:00,40.8,20.0,29.89,WNW,282,6.0,-999.0,43,-99.99,,,0.00,weatherlink.com 1.10,2013-03-23 21:44:00,
2013-03-23 17:58:00,40.2,19.0,29.89,WNW,292,3.0,-999.0,43,-99.99,,,0.00,weatherlink.com 1.10,2013-03-23 21:58:00,
2013-03-23 18:13:00,41.0,19.0,29.90,West,263,5.0,-999.0,42,-99.99,,,0.00,weatherlink.com 1.10,2013-03-23 22:13:00,
2013-03-23 18:30:00,40.9,19.0,29.90,NNW,327,9.0,-999.0,42,-99.99,,,0.00,weatherlink.com 1.10,2013-03-23 22:30:00,
2013-03-23 18:45:00,40.6,19.0,29.90,West,263,6.0,-999.0,42,-99.99,,,0.00,weatherlink.com 1.10,2013-03-23 22:45:00,
2013-03-23 19:00:00,40.1,19.0,29.91,NW,314,6.0,-999.0,43,-99.99,,,0.00,weatherlink.com 1.10,2013-03-23 23:00:00,
2013-03-23 19:15:00,39.5,19.0,29.92,West,277,10.0,-999.0,44,-99.99,,,0.00,weatherlink.com 1.10,2013-03-23 23:15:00,
2013-03-23 19:30:00,39.0,19.0,29.92,NW,324,8.0,-999.0,45,-99.99,,,0.00,weatherlink.com 1.10,2013-03-23 23:30:00,
2013-03-23 19:46:00,38.7,19.0,29.93,WNW,289,3.0,-999.0,46,-99.99,,,0.00,weatherlink.com 1.10,2013-03-23 23:46:00,
2013-03-23 20:00:00,38.4,19.0,29.93,WNW,282,4.0,-999.0,46,-99.99,,,0.00,weatherlink.com 1.10,2013-03-24 00:00:00,
2013-03-23 20:16:00,38.1,19.0,29.93,NNW,344,9.0,-999.0,47,-99.99,,,0.00,weatherlink.com 1.10,2013-03-24 00:16:00,
2013-03-23 20:31:00,37.7,19.0,29.94,NNW,332,4.0,-999.0,47,-99.99,,,0.00,weatherlink.com 1.10,2013-03-24 00:31:00,
2013-03-23 20:46:00,37.6,19.0,29.94,NW,317,4.0,-999.0,47,-99.99,,,0.00,weatherlink.com 1.10,2013-03-24 00:46:00,
2013-03-23 21:01:00,37.3,19.0,29.94,WNW,296,6.0,-999.0,48,-99.99,,,0.00,weatherlink.com 1.10,2013-03-24 01:01:00,
2013-03-23 21:17:00,36.9,19.0,29.94,WNW,290,4.0,-999.0,49,-99.99,,,0.00,weatherlink.com 1.10,2013-03-24 01:17:00,
2013-03-23 21:47:00,36.4,19.0,29.95,West,263,3.0,-999.0,49,-99.99,,,0.00,weatherlink.com 1.10,2013-03-24 01:47:00,
2013-03-23 22:02:00,36.0,19.0,29.95,NNW,346,6.0,-999.0,51,-99.99,,,0.00,weatherlink.com 1.10,2013-03-24 02:02:00,
2013-03-23 22:18:00,35.5,20.0,29.96,West,263,5.0,-999.0,53,-99.99,,,0.00,weatherlink.com 1.10,2013-03-24 02:18:00,
2013-03-23 22:34:00,35.4,20.0,29.97,North,355,6.0,-999.0,53,-99.99,,,0.00,weatherlink.com 1.10,2013-03-24 02:34:00,
2013-03-23 22:48:00,35.4,19.0,29.97,NW,315,9.0,-999.0,52,-99.99,,,0.00,weatherlink.com 1.10,2013-03-24 02:48:00,
2013-03-23 23:03:00,35.2,19.0,29.96,NW,321,15.0,-999.0,52,-99.99,,,0.00,weatherlink.com 1.10,2013-03-24 03:03:00,
2013-03-23 23:20:00,34.7,19.0,29.96,West,266,5.0,-999.0,54,-99.99,,,0.00,weatherlink.com 1.10,2013-03-24 03:20:00,
2013-03-23 23:35:00,34.3,19.0,29.96,WNW,292,9.0,-999.0,54,-99.99,,,0.00,weatherlink.com 1.10,2013-03-24 03:35:00,
2013-03-23 23:50:00,34.3,19.0,29.97,NNE,22,4.0,-999.0,54,-99.99,,,0.00,weatherlink.com 1.10,2013-03-24 03:50:00,